2018-099C (43760 NORAD) Tracking and Keplerian Element Data

This shows tracking and keplerian element data for the satellite.

Feedback or suggestion? Click here.




ElementValue
Catalog43760
Name2018-099C
Epoch Orbit92
Epoch Day343.90913507
Epoch Year2018
RAAN53.0037
Inclination97.7673
Eccentricity0.0012936
Argument of Perigee238.9435
Mean Anonmoly121.0516
Mean Motion14.94991399
Decay Rate1.79E-06
L11 43760U 18099C 18343.90913507 .00000179 00000-0 21667-4 0 9993
L22 43760 97.7673 53.0037 0012936 238.9435 121.0516 14.94991399 929

Live tracking and technical data element details for 2018-099C (NORAD 43760). 2018-099C can be tracked NOW for your location showing map with azimuth and elevation plus other details from your city location.

Track the satellite on the map from your city or location and see movement details for azimuth, elevation, latitude, longitude, range, height, and movement on the map or in text.







IsCatalogInMostPopularTable: catalog: 43760, numindb: 3
Update: records affected: 1



GetName: 43760 2018-099C

Hit Count: updated at: Tue, 11 Dec 2018 02:25:04 GMT